Time,TemperatureF,DewpointF,PressureIn,WindDirection,WindDirectionDegrees,WindSpeedMPH,WindSpeedGustMPH,Humidity,HourlyPrecipIn,Conditions,Clouds,dailyrainin,SoftwareType,DateUTC
2013-05-30 00:02:00,74.4,66.0,29.84,WSW,242,5.0,7.0,74,0.00,,,0.00,weatherlink.com 1.10,2013-05-30 05:02:00,
2013-05-30 00:17:00,74.5,66.0,29.83,SE,133,1.0,9.0,74,0.00,,,0.00,weatherlink.com 1.10,2013-05-30 05:17:00,
2013-05-30 00:32:00,73.9,66.0,29.83,SSE,167,1.0,4.0,76,0.00,,,0.00,weatherlink.com 1.10,2013-05-30 05:32:00,
2013-05-30 00:47:00,73.6,66.0,29.82,WSW,246,1.0,6.0,76,0.00,,,0.00,weatherlink.com 1.10,2013-05-30 05:47:00,
2013-05-30 01:02:00,73.1,66.0,29.82,ESE,122,8.0,8.0,78,0.00,,,0.00,weatherlink.com 1.10,2013-05-30 06:02:00,
2013-05-30 01:17:00,72.9,66.0,29.81,WSW,252,0.0,10.0,78,0.00,,,0.00,weatherlink.com 1.10,2013-05-30 06:17:00,
2013-05-30 01:32:00,72.5,65.0,29.81,SE,126,1.0,5.0,78,0.00,,,0.00,weatherlink.com 1.10,2013-05-30 06:32:00,
2013-05-30 01:47:00,72.1,65.0,29.80,ENE,68,1.0,3.0,78,0.00,,,0.00,weatherlink.com 1.10,2013-05-30 06:47:00,
2013-05-30 02:02:00,71.8,65.0,29.80,ESE,113,1.0,5.0,78,0.00,,,0.00,weatherlink.com 1.10,2013-05-30 07:02:00,
2013-05-30 02:17:00,71.6,64.0,29.80,East,95,2.0,3.0,78,0.00,,,0.00,weatherlink.com 1.10,2013-05-30 07:17:00,
2013-05-30 02:32:00,71.6,64.0,29.80,ESE,113,2.0,8.0,78,0.00,,,0.00,weatherlink.com 1.10,2013-05-30 07:32:00,
2013-05-30 02:47:00,71.3,65.0,29.80,SW,229,5.0,7.0,79,0.00,,,0.00,weatherlink.com 1.10,2013-05-30 07:47:00,
2013-05-30 03:02:00,71.4,65.0,29.80,East,86,2.0,8.0,80,0.00,,,0.00,weatherlink.com 1.10,2013-05-30 08:02:00,
2013-05-30 03:17:00,71.8,65.0,29.80,WSW,243,4.0,11.0,79,0.00,,,0.00,weatherlink.com 1.10,2013-05-30 08:17:00,
2013-05-30 03:32:00,71.9,65.0,29.80,South,171,2.0,9.0,79,0.00,,,0.00,weatherlink.com 1.10,2013-05-30 08:32:00,
2013-05-30 03:48:00,71.9,65.0,29.80,SSW,207,3.0,6.0,80,0.00,,,0.00,weatherlink.com 1.10,2013-05-30 08:48:00,
2013-05-30 04:03:00,72.0,66.0,29.79,ESE,119,6.0,8.0,80,0.00,,,0.00,weatherlink.com 1.10,2013-05-30 09:03:00,
2013-05-30 04:18:00,72.1,66.0,29.79,SE,144,3.0,7.0,80,0.00,,,0.00,weatherlink.com 1.10,2013-05-30 09:18:00,
2013-05-30 04:33:00,71.9,66.0,29.78,WSW,240,3.0,6.0,81,0.00,,,0.00,weatherlink.com 1.10,2013-05-30 09:33:00,
2013-05-30 04:48:00,71.6,66.0,29.78,SSW,200,1.0,6.0,82,0.00,,,0.00,weatherlink.com 1.10,2013-05-30 09:48:00,
2013-05-30 05:03:00,71.3,66.0,29.78,WSW,243,3.0,7.0,83,0.00,,,0.00,weatherlink.com 1.10,2013-05-30 10:03:00,
2013-05-30 05:18:00,71.0,66.0,29.78,East,98,2.0,7.0,84,0.00,,,0.00,weatherlink.com 1.10,2013-05-30 10:18:00,
2013-05-30 05:48:00,70.7,66.0,29.80,WSW,240,4.0,10.0,85,0.00,,,0.00,weatherlink.com 1.10,2013-05-30 10:48:00,
2013-05-30 06:03:00,70.8,67.0,29.80,SW,236,5.0,7.0,86,0.00,,,0.00,weatherlink.com 1.10,2013-05-30 11:03:00,
2013-05-30 06:18:00,72.0,67.0,29.80,WSW,256,8.0,9.0,84,0.00,,,0.00,weatherlink.com 1.10,2013-05-30 11:18:00,
2013-05-30 06:33:00,72.8,67.0,29.80,SW,229,3.0,11.0,83,0.00,,,0.00,weatherlink.com 1.10,2013-05-30 11:33:00,
2013-05-30 06:48:00,73.7,68.0,29.80,SSW,208,4.0,11.0,81,0.00,,,0.00,weatherlink.com 1.10,2013-05-30 11:48:00,
2013-05-30 07:03:00,74.4,68.0,29.81,SSW,195,6.0,17.0,80,0.00,,,0.00,weatherlink.com 1.10,2013-05-30 12:03:00,
2013-05-30 07:18:00,74.5,68.0,29.80,SW,224,4.0,11.0,80,0.00,,,0.00,weatherlink.com 1.10,2013-05-30 12:18:00,
2013-05-30 07:33:00,74.5,68.0,29.80,SW,222,8.0,16.0,81,0.00,,,0.00,weatherlink.com 1.10,2013-05-30 12:33:00,
2013-05-30 07:48:00,74.8,68.0,29.80,SW,227,8.0,16.0,80,0.00,,,0.00,weatherlink.com 1.10,2013-05-30 12:48:00,
2013-05-30 08:03:00,75.1,69.0,29.79,SW,234,8.0,15.0,81,0.00,,,0.00,weatherlink.com 1.10,2013-05-30 13:03:00,
2013-05-30 08:18:00,75.4,69.0,29.79,SE,138,7.0,14.0,80,0.00,,,0.00,weatherlink.com 1.10,2013-05-30 13:18:00,
2013-05-30 08:33:00,75.9,69.0,29.79,WSW,255,3.0,13.0,80,0.00,,,0.00,weatherlink.com 1.10,2013-05-30 13:33:00,
2013-05-30 08:48:00,76.8,69.0,29.79,WSW,248,4.0,17.0,78,0.00,,,0.00,weatherlink.com 1.10,2013-05-30 13:48:00,
2013-05-30 09:03:00,77.5,70.0,29.80,SW,214,8.0,18.0,78,0.00,,,0.00,weatherlink.com 1.10,2013-05-30 14:03:00,
2013-05-30 09:18:00,77.6,70.0,29.80,WSW,240,11.0,21.0,77,0.00,,,0.00,weatherlink.com 1.10,2013-05-30 14:18:00,
2013-05-30 09:33:00,77.5,70.0,29.80,SSW,203,17.0,18.0,77,0.00,,,0.00,weatherlink.com 1.10,2013-05-30 14:33:00,
2013-05-30 09:48:00,77.5,70.0,29.80,SSW,195,12.0,20.0,78,0.00,,,0.00,weatherlink.com 1.10,2013-05-30 14:48:00,
2013-05-30 10:03:00,77.1,70.0,29.80,SW,219,14.0,26.0,79,0.00,,,0.00,weatherlink.com 1.10,2013-05-30 15:03:00,
2013-05-30 10:18:00,77.5,71.0,29.79,SSW,208,15.0,21.0,80,0.00,,,0.00,weatherlink.com 1.10,2013-05-30 15:18:00,
2013-05-30 10:33:00,78.8,71.0,29.79,South,184,16.0,19.0,77,0.00,,,0.00,weatherlink.com 1.10,2013-05-30 15:33:00,
2013-05-30 10:48:00,79.5,71.0,29.79,SW,235,8.0,18.0,76,0.00,,,0.00,weatherlink.com 1.10,2013-05-30 15:48:00,
2013-05-30 11:03:00,79.9,71.0,29.79,SW,227,10.0,19.0,74,0.00,,,0.00,weatherlink.com 1.10,2013-05-30 16:03:00,
2013-05-30 11:18:00,80.7,71.0,29.79,SSE,153,7.0,18.0,72,0.00,,,0.00,weatherlink.com 1.10,2013-05-30 16:18:00,
2013-05-30 11:33:00,81.0,70.0,29.79,SSW,193,7.0,21.0,70,0.00,,,0.00,weatherlink.com 1.10,2013-05-30 16:33:00,
2013-05-30 11:48:00,81.9,71.0,29.79,SSW,193,11.0,17.0,69,0.00,,,0.00,weatherlink.com 1.10,2013-05-30 16:48:00,
2013-05-30 12:03:00,81.6,71.0,29.79,SW,228,20.0,20.0,69,0.00,,,0.00,weatherlink.com 1.10,2013-05-30 17:03:00,
2013-05-30 12:18:00,81.2,70.0,29.79,SSW,201,10.0,24.0,69,0.00,,,0.00,weatherlink.com 1.10,2013-05-30 17:18:00,
2013-05-30 12:33:00,81.8,70.0,29.78,SW,228,7.0,26.0,68,0.00,,,0.00,weatherlink.com 1.10,2013-05-30 17:33:00,
2013-05-30 12:48:00,82.1,70.0,29.77,SSW,205,9.0,23.0,67,0.00,,,0.00,weatherlink.com 1.10,2013-05-30 17:48:00,
2013-05-30 13:04:00,81.9,70.0,29.77,SSW,192,10.0,22.0,67,0.00,,,0.00,weatherlink.com 1.10,2013-05-30 18:04:00,
2013-05-30 13:19:00,81.7,69.0,29.77,WSW,245,16.0,18.0,66,0.00,,,0.00,weatherlink.com 1.10,2013-05-30 18:19:00,
2013-05-30 13:34:00,82.9,69.0,29.76,SSE,160,12.0,22.0,64,0.00,,,0.00,weatherlink.com 1.10,2013-05-30 18:34:00,
2013-05-30 13:49:00,82.7,69.0,29.75,South,172,11.0,27.0,63,0.00,,,0.00,weatherlink.com 1.10,2013-05-30 18:49:00,
2013-05-30 14:04:00,80.9,69.0,29.75,SW,221,13.0,23.0,67,0.00,,,0.00,weatherlink.com 1.10,2013-05-30 19:04:00,
2013-05-30 14:19:00,79.1,70.0,29.74,SE,127,8.0,16.0,73,0.00,,,0.00,weatherlink.com 1.10,2013-05-30 19:19:00,
2013-05-30 14:34:00,77.5,69.0,29.75,SSW,211,7.0,20.0,75,0.00,,,0.00,weatherlink.com 1.10,2013-05-30 19:34:00,
2013-05-30 14:49:00,76.2,70.0,29.74,WSW,257,5.0,13.0,80,0.00,,,0.00,weatherlink.com 1.10,2013-05-30 19:49:00,
2013-05-30 15:04:00,75.5,69.0,29.73,ENE,77,2.0,10.0,80,0.00,,,0.00,weatherlink.com 1.10,2013-05-30 20:04:00,
2013-05-30 15:19:00,76.0,70.0,29.72,SW,220,4.0,11.0,82,0.00,,,0.00,weatherlink.com 1.10,2013-05-30 20:19:00,
2013-05-30 15:34:00,77.9,71.0,29.73,SW,236,9.0,19.0,80,0.00,,,0.00,weatherlink.com 1.10,2013-05-30 20:34:00,
2013-05-30 15:49:00,79.6,71.0,29.73,ESE,103,5.0,23.0,76,0.00,,,0.00,weatherlink.com 1.10,2013-05-30 20:49:00,
2013-05-30 16:04:00,78.5,71.0,29.72,WSW,238,9.0,21.0,77,0.00,,,0.00,weatherlink.com 1.10,2013-05-30 21:04:00,
2013-05-30 16:19:00,79.3,72.0,29.71,WSW,250,12.0,20.0,77,0.00,,,0.00,weatherlink.com 1.10,2013-05-30 21:19:00,
2013-05-30 16:34:00,78.7,71.0,29.71,WSW,245,7.0,21.0,76,0.00,,,0.00,weatherlink.com 1.10,2013-05-30 21:34:00,
2013-05-30 16:49:00,79.5,72.0,29.71,WSW,238,6.0,17.0,77,0.00,,,0.00,weatherlink.com 1.10,2013-05-30 21:49:00,
2013-05-30 17:04:00,78.3,71.0,29.71,SSW,209,8.0,18.0,77,0.00,,,0.00,weatherlink.com 1.10,2013-05-30 22:04:00,
2013-05-30 17:19:00,76.2,69.0,29.75,West,260,6.0,16.0,77,0.00,,,0.00,weatherlink.com 1.10,2013-05-30 22:19:00,
2013-05-30 17:34:00,68.0,61.0,29.77,NW,304,3.0,12.0,79,0.04,,,0.04,weatherlink.com 1.10,2013-05-30 22:34:00,
2013-05-30 17:48:00,63.9,61.0,29.77,NNE,13,3.0,17.0,90,0.18,,,0.18,weatherlink.com 1.10,2013-05-30 22:48:00,
2013-05-30 18:19:00,62.5,61.0,29.78,WNW,285,2.0,8.0,95,0.49,,,0.49,weatherlink.com 1.10,2013-05-30 23:19:00,
2013-05-30 18:34:00,62.6,61.0,29.79,West,259,1.0,16.0,95,0.63,,,0.68,weatherlink.com 1.10,2013-05-30 23:34:00,
2013-05-30 18:49:00,62.4,61.0,29.78,WSW,239,3.0,6.0,96,0.70,,,0.89,weatherlink.com 1.10,2013-05-30 23:49:00,
2013-05-30 19:04:00,62.4,61.0,29.76,East,101,0.0,6.0,96,0.71,,,0.99,weatherlink.com 1.10,2013-05-31 00:04:00,
2013-05-30 19:19:00,62.4,61.0,29.77,NE,39,0.0,4.0,96,0.54,,,1.07,weatherlink.com 1.10,2013-05-31 00:19:00,
2013-05-30 19:34:00,62.5,62.0,29.78,WSW,242,4.0,5.0,97,0.46,,,1.16,weatherlink.com 1.10,2013-05-31 00:34:00,
2013-05-30 19:49:00,62.6,62.0,29.79,West,271,3.0,5.0,97,0.30,,,1.19,weatherlink.com 1.10,2013-05-31 00:49:00,
2013-05-30 20:04:00,62.8,62.0,29.80,SW,221,2.0,8.0,97,0.29,,,1.28,weatherlink.com 1.10,2013-05-31 01:04:00,
2013-05-30 20:20:00,62.8,62.0,29.79,SW,217,6.0,7.0,97,0.23,,,1.30,weatherlink.com 1.10,2013-05-31 01:20:00,
2013-05-30 20:35:00,62.8,62.0,29.78,WSW,242,2.0,5.0,97,0.15,,,1.31,weatherlink.com 1.10,2013-05-31 01:35:00,
2013-05-30 20:49:00,62.9,62.0,29.78,SE,124,0.0,6.0,97,0.12,,,1.31,weatherlink.com 1.10,2013-05-31 01:49:00,
2013-05-30 21:05:00,63.0,62.0,29.79,East,79,3.0,3.0,97,0.03,,,1.31,weatherlink.com 1.10,2013-05-31 02:05:00,
2013-05-30 21:20:00,62.9,62.0,29.77,SSE,149,1.0,6.0,97,0.01,,,1.31,weatherlink.com 1.10,2013-05-31 02:20:00,
2013-05-30 21:36:00,62.8,62.0,29.78,ESE,110,2.0,5.0,97,0.00,,,1.31,weatherlink.com 1.10,2013-05-31 02:36:00,
2013-05-30 21:50:00,62.9,62.0,29.78,West,281,1.0,10.0,97,0.00,,,1.31,weatherlink.com 1.10,2013-05-31 02:50:00,
2013-05-30 22:05:00,63.5,62.0,29.78,South,177,4.0,16.0,96,0.01,,,1.32,weatherlink.com 1.10,2013-05-31 03:05:00,
2013-05-30 22:20:00,64.2,63.0,29.78,SSW,195,11.0,12.0,95,0.01,,,1.32,weatherlink.com 1.10,2013-05-31 03:20:00,
2013-05-30 22:36:00,64.6,63.0,29.79,SW,218,11.0,19.0,94,0.02,,,1.33,weatherlink.com 1.10,2013-05-31 03:36:00,
2013-05-30 22:50:00,64.5,63.0,29.77,ESE,107,3.0,17.0,94,0.07,,,1.38,weatherlink.com 1.10,2013-05-31 03:50:00,
2013-05-30 23:06:00,64.0,63.0,29.77,SSW,203,1.0,7.0,95,0.08,,,1.40,weatherlink.com 1.10,2013-05-31 04:06:00,
2013-05-30 23:20:00,64.0,63.0,29.80,SW,221,7.0,13.0,96,0.09,,,1.41,weatherlink.com 1.10,2013-05-31 04:20:00,
2013-05-30 23:36:00,64.0,63.0,29.77,ESE,105,6.0,11.0,97,0.12,,,1.45,weatherlink.com 1.10,2013-05-31 04:36:00,
2013-05-30 23:51:00,63.9,63.0,29.74,WSW,243,3.0,6.0,96,0.10,,,1.48,weatherlink.com 1.10,2013-05-31 04:51:00,